"startDT [UTC]","vpos","CH4 [ppm]","stdev(CH4) [ppm]","CO2 [ppm]","stdev(CO2) [ppm]","H2O [ppm]","stdev(H2O)","p_LGR [torr]","T_LGR [C]","mt1_LGR [us]","mt2_LGR [us]","T_ECpre [C]","T_EC1 [C]","T_EC2 [C]","p_inlet [hPa]","p_in [hPa]","p_out [hPa]","T_inlet [C]","RH_inlet [%]","dwpt_inlet [C]","T_vent [C]","RH_vent [%]","dwpt_vent [C]","flow_vent [l min-1]","flow_inlet [l min-1]","dwpt_sample [C]","T_room [C]"
2012-01-16 00:00:00,0.0,1.9397,0.0012,402.60,0.20,-1.0,0.0,138.23,23.58,24.58,36.25,0.04,-272.73,-272.74,-44,541,-942,18.3,0.7,-41.8,18.4,0.8,-41.1,5.73,2.45,-35.5,23.4
2012-01-16 00:01:00,0.0,1.9397,0.0010,402.60,0.18,-1.0,0.0,138.23,23.57,24.57,36.24,0.04,-272.73,-272.74,-44,541,-942,18.3,0.7,-41.8,18.4,0.8,-41.1,5.73,2.46,-35.5,23.4
2012-01-16 00:02:00,0.0,1.9385,0.0009,402.51,0.17,-1.0,0.0,138.23,23.57,24.58,36.24,0.04,-272.74,-272.74,-44,541,-942,18.3,0.7,-41.7,18.3,0.8,-41.1,5.73,2.51,-35.5,23.4
2012-01-16 00:03:00,0.0,1.9386,0.0009,402.41,0.19,-1.0,0.0,138.23,23.57,24.57,36.24,0.04,-272.73,-272.73,-44,541,-942,18.3,0.7,-41.7,18.3,0.8,-41.1,5.73,2.52,-35.5,23.4
2012-01-16 00:04:00,0.0,1.9387,0.0008,402.39,0.22,-1.0,0.0,138.23,23.57,24.58,36.24,0.04,-272.73,-272.73,-44,541,-942,18.3,0.7,-41.8,18.4,0.8,-41.1,5.73,2.48,-35.5,23.4
2012-01-16 00:05:00,0.0,1.9393,0.0007,402.39,0.20,-1.0,0.0,138.23,23.57,24.57,36.24,0.04,-272.73,-272.74,-44,541,-942,18.3,0.7,-41.7,18.4,0.8,-41.0,5.73,2.44,-35.5,23.4
2012-01-16 00:06:00,0.0,1.9400,0.0008,402.25,0.17,-1.0,0.0,138.23,23.57,24.58,36.25,0.04,-272.74,-272.73,-44,541,-942,18.3,0.7,-41.8,18.4,0.8,-41.1,5.73,2.48,-35.5,23.4
2012-01-16 00:07:00,0.0,1.9398,0.0008,402.39,0.16,-1.0,0.0,138.23,23.58,24.58,36.24,0.04,-272.73,-272.73,-44,541,-942,18.3,0.7,-41.7,18.4,0.8,-41.1,5.73,2.52,-35.5,23.4
2012-01-16 00:08:00,0.0,1.9396,0.0009,402.36,0.17,-1.0,0.0,138.23,23.58,24.57,36.24,0.04,-272.74,-272.73,-44,541,-942,18.3,0.7,-41.8,18.4,0.8,-41.1,5.73,2.51,-35.5,23.4
2012-01-16 00:09:00,0.0,1.9395,0.0008,402.43,0.18,-1.0,0.0,138.23,23.57,24.58,36.24,0.04,-272.73,-272.74,-44,541,-942,18.3,0.7,-41.7,18.4,0.8,-41.0,5.73,2.46,-35.4,23.4
2012-01-16 00:10:00,0.0,1.9394,0.0009,402.33,0.17,-1.0,0.0,138.23,23.57,24.58,36.25,0.04,-272.74,-272.74,-44,541,-942,18.3,0.7,-41.7,18.4,0.8,-41.0,5.73,2.45,-35.4,23.3
2012-01-16 00:11:00,0.0,1.9392,0.0009,402.30,0.18,-1.0,0.0,138.23,23.57,24.58,36.24,0.04,-272.73,-272.73,-44,541,-942,18.3,0.7,-41.7,18.4,0.8,-41.0,5.73,2.50,-35.4,23.4
2012-01-16 00:12:00,0.0,1.9386,0.0010,402.28,0.19,-1.0,0.0,138.23,23.57,24.58,36.25,0.04,-272.74,-272.74,-44,541,-942,18.3,0.7,-41.7,18.4,0.8,-41.1,5.73,2.53,-35.5,23.4
2012-01-16 00:13:00,0.0,1.9388,0.0009,402.29,0.20,-1.0,0.0,138.23,23.56,24.57,36.24,0.04,-272.74,-272.74,-44,541,-942,18.3,0.7,-41.7,18.4,0.8,-41.1,5.73,2.49,-35.4,23.3
2012-01-16 00:14:00,0.0,1.9383,0.0008,402.25,0.18,-1.0,0.0,138.23,23.56,24.58,36.25,0.04,-272.73,-272.73,-44,541,-942,18.3,0.7,-41.8,18.4,0.8,-41.1,5.73,2.45,-35.4,23.4
2012-01-16 00:15:00,0.0,1.9368,0.0009,402.26,0.18,-1.0,0.0,138.23,23.56,24.58,36.25,0.04,-272.73,-272.73,-44,541,-942,18.3,0.7,-41.7,18.4,0.8,-41.0,5.73,2.46,-35.4,23.4
2012-01-16 00:16:00,0.0,1.9376,0.0010,402.34,0.17,-1.0,0.0,138.23,23.56,24.58,36.24,0.04,-272.74,-272.74,-44,541,-942,18.3,0.7,-41.7,18.4,0.8,-41.1,5.73,2.51,-35.4,23.4
2012-01-16 00:17:00,0.0,1.9366,0.0011,402.34,0.17,-1.0,0.0,138.23,23.56,24.57,36.24,0.04,-272.73,-272.74,-44,541,-942,18.3,0.8,-41.4,18.4,0.8,-41.0,5.73,2.52,-35.4,23.4
2012-01-16 00:18:00,0.0,1.9367,0.0008,402.30,0.19,-1.0,0.0,138.23,23.56,24.57,36.24,0.04,-272.73,-272.73,-44,541,-942,18.3,0.8,-41.4,18.3,0.8,-41.1,5.73,2.48,-35.5,23.4
2012-01-16 00:19:00,0.0,1.9366,0.0008,402.31,0.19,-1.0,0.0,138.23,23.55,24.57,36.25,0.04,-272.74,-272.74,-44,541,-942,18.3,0.8,-41.4,18.4,0.8,-40.7,5.73,2.44,-35.4,23.4
2012-01-16 00:20:00,0.0,1.9362,0.0009,402.29,0.16,-1.0,0.0,138.23,23.55,24.57,36.25,0.04,-272.73,-272.73,-44,541,-942,18.3,0.8,-41.4,18.4,0.8,-40.8,5.73,2.46,-35.5,23.4
2012-01-16 00:21:00,0.0,1.9362,0.0008,402.34,0.23,-1.0,0.0,138.23,23.55,24.57,36.24,0.04,-272.74,-272.73,-44,541,-942,18.3,0.8,-41.3,18.4,0.8,-40.7,5.73,2.51,-35.5,23.3
2012-01-16 00:22:00,0.0,1.9366,0.0010,402.32,0.15,-1.0,0.0,138.23,23.55,24.57,36.24,0.04,-272.73,-272.74,-44,541,-942,18.3,0.8,-41.1,18.3,0.8,-40.8,5.73,2.52,-35.5,23.3
2012-01-16 00:23:00,0.0,1.9371,0.0008,402.33,0.18,-1.0,0.0,138.23,23.55,24.57,36.24,0.04,-272.73,-272.73,-44,541,-942,18.3,0.8,-41.3,18.3,0.8,-40.7,5.73,2.47,-35.5,23.4
2012-01-16 00:24:00,0.0,1.9372,0.0008,402.36,0.19,-1.0,0.0,138.23,23.55,24.57,36.24,0.04,-272.73,-272.73,-44,541,-942,18.3,0.8,-41.4,18.3,0.8,-40.8,5.73,2.44,-35.5,23.3
2012-01-16 00:25:00,0.0,1.9372,0.0009,402.28,0.18,-1.0,0.0,138.23,23.55,24.57,36.25,0.04,-272.74,-272.74,-44,541,-942,18.3,0.8,-41.4,18.3,0.8,-40.7,5.73,2.48,-35.5,23.4
2012-01-16 00:26:00,0.0,1.9374,0.0009,402.43,0.22,-1.0,0.0,138.23,23.54,24.58,36.24,0.04,-272.73,-272.74,-44,541,-942,18.3,0.8,-41.4,18.3,0.8,-40.7,5.73,2.52,-35.5,23.4
2012-01-16 00:27:00,0.0,1.9361,0.0007,402.32,0.18,-1.0,0.0,138.23,23.54,24.57,36.25,0.04,-272.74,-272.74,-44,541,-942,18.3,0.8,-41.4,18.3,0.8,-40.7,5.73,2.52,-35.5,23.4
2012-01-16 00:28:00,0.0,1.9359,0.0010,402.36,0.17,-1.0,0.0,138.23,23.54,24.57,36.24,0.04,-272.73,-272.74,-44,541,-942,18.3,0.8,-41.5,18.3,0.8,-40.8,5.73,2.46,-35.5,23.4
2012-01-16 00:29:00,0.0,1.9359,0.0009,402.38,0.16,-1.0,0.0,138.23,23.54,24.58,36.24,0.04,-272.74,-272.74,-44,540,-942,18.3,0.8,-41.2,18.3,0.8,-40.7,5.73,2.45,-35.5,23.4
2012-01-16 00:30:00,0.0,1.9360,0.0008,402.36,0.22,-1.0,0.0,138.23,23.54,24.58,36.25,0.04,-272.73,-272.74,-44,541,-942,18.3,0.8,-41.0,18.3,0.8,-40.7,5.73,2.51,-35.5,23.4
2012-01-16 00:31:00,0.0,1.9363,0.0007,402.40,0.18,-1.0,0.0,138.23,23.54,24.58,36.24,0.04,-272.74,-272.73,-44,541,-942,18.3,0.8,-41.0,18.3,0.8,-40.8,5.73,2.53,-35.5,23.4
2012-01-16 00:32:00,0.0,1.9363,0.0010,402.33,0.19,-1.0,0.0,138.23,23.54,24.58,36.25,0.04,-272.74,-272.73,-44,541,-942,18.3,0.8,-41.1,18.3,0.8,-40.8,5.73,2.49,-35.5,23.3
2012-01-16 00:33:00,0.0,1.9375,0.0008,402.41,0.17,-1.0,0.0,138.23,23.54,24.58,36.25,0.04,-272.74,-272.73,-44,541,-942,18.3,0.8,-41.1,18.3,0.8,-40.7,5.73,2.44,-35.5,23.4
2012-01-16 00:34:00,0.0,1.9384,0.0008,402.57,0.20,-1.0,0.0,138.23,23.54,24.57,36.24,0.04,-272.73,-272.73,-44,541,-942,18.3,0.8,-41.4,18.3,0.8,-40.7,5.73,2.46,-35.5,23.4
2012-01-16 00:35:00,0.0,1.9390,0.0010,402.59,0.18,-1.0,0.0,138.23,23.55,24.58,36.24,0.04,-272.73,-272.73,-44,541,-942,18.3,0.7,-41.7,18.3,0.8,-41.0,5.73,2.51,-35.5,23.4
2012-01-16 00:36:00,0.0,1.9391,0.0009,402.70,0.18,-1.0,0.0,138.23,23.55,24.57,36.24,0.04,-272.74,-272.74,-44,541,-942,18.3,0.7,-41.7,18.3,0.8,-41.1,5.73,2.52,-35.5,23.4
2012-01-16 00:37:00,0.0,1.9389,0.0009,402.63,0.19,-1.0,0.0,138.23,23.55,24.57,36.24,0.04,-272.73,-272.74,-44,540,-942,18.3,0.7,-41.7,18.3,0.8,-41.2,5.73,2.48,-35.5,23.4
2012-01-16 00:38:00,0.0,1.9390,0.0010,402.58,0.17,-1.0,0.0,138.23,23.55,24.58,36.25,0.04,-272.73,-272.73,-44,541,-942,18.3,0.7,-41.8,18.3,0.8,-41.4,5.73,2.44,-35.5,23.4
2012-01-16 00:39:00,0.0,1.9393,0.0011,402.69,0.19,-1.0,0.0,138.23,23.56,24.57,36.24,0.04,-272.73,-272.73,-44,541,-942,18.3,0.7,-41.8,18.3,0.8,-41.4,5.73,2.47,-35.6,23.4
2012-01-16 00:40:00,0.0,1.9390,0.0010,402.69,0.21,-1.0,0.0,138.23,23.56,24.57,36.24,0.04,-272.73,-272.74,-44,540,-942,18.3,0.7,-41.7,18.3,0.8,-41.3,5.73,2.52,-35.5,23.4
2012-01-16 00:41:00,0.0,1.9377,0.0009,402.64,0.17,-1.0,0.0,138.23,23.55,24.58,36.24,0.04,-272.73,-272.73,-44,540,-942,18.3,0.7,-41.7,18.3,0.8,-41.4,5.73,2.52,-35.6,23.4
2012-01-16 00:42:00,0.0,1.9386,0.0008,402.58,0.16,-1.0,0.0,138.23,23.55,24.57,36.24,0.04,-272.74,-272.74,-44,541,-942,18.3,0.7,-41.8,18.3,0.8,-41.4,5.73,2.47,-35.6,23.4
2012-01-16 00:43:00,0.0,1.9374,0.0008,402.60,0.16,-1.0,0.0,138.23,23.55,24.58,36.24,0.04,-272.74,-272.74,-44,541,-942,18.3,0.7,-41.8,18.3,0.8,-41.2,5.73,2.44,-35.6,23.4
2012-01-16 00:44:00,0.0,1.9376,0.0008,402.56,0.16,-1.0,0.0,138.23,23.55,24.57,36.24,0.04,-272.73,-272.73,-44,541,-942,18.3,0.7,-41.7,18.3,0.8,-41.1,5.73,2.48,-35.6,23.4
2012-01-16 00:45:00,0.0,1.9386,0.0009,402.65,0.17,-1.0,0.0,138.23,23.54,24.58,36.25,0.04,-272.73,-272.73,-44,541,-942,18.2,0.7,-41.8,18.3,0.8,-41.1,5.73,2.53,-35.6,23.4
2012-01-16 00:46:00,0.0,1.9383,0.0008,402.71,0.19,-1.0,0.0,138.23,23.54,24.58,36.24,0.04,-272.74,-272.74,-44,541,-942,18.3,0.7,-41.8,18.3,0.8,-41.0,5.73,2.51,-35.6,23.4
2012-01-16 00:47:00,0.0,1.9385,0.0008,402.73,0.18,-1.0,0.0,138.23,23.54,24.57,36.24,0.04,-272.73,-272.73,-44,541,-942,18.3,0.7,-41.8,18.3,0.8,-41.1,5.73,2.46,-35.6,23.3
2012-01-16 00:48:00,0.0,1.9379,0.0008,402.66,0.19,-1.0,0.0,138.23,23.53,24.57,36.25,0.04,-272.74,-272.73,-44,540,-942,18.3,0.7,-41.8,18.3,0.8,-41.0,5.73,2.45,-35.6,23.3
2012-01-16 00:49:00,0.0,1.9370,0.0008,402.59,0.18,-1.0,0.0,138.23,23.53,24.58,36.24,0.04,-272.73,-272.73,-44,541,-942,18.3,0.7,-41.7,18.3,0.8,-41.1,5.73,2.49,-35.6,23.3
2012-01-16 00:50:00,0.0,1.9371,0.0009,402.70,0.18,-1.0,0.0,138.23,23.53,24.57,36.24,0.04,-272.74,-272.73,-44,541,-942,18.3,0.7,-41.7,18.3,0.8,-41.1,5.73,2.53,-35.6,23.4
2012-01-16 00:51:00,0.0,1.9373,0.0009,403.02,0.15,-1.0,0.0,138.23,23.53,24.57,36.24,0.04,-272.73,-272.74,-44,541,-942,18.3,0.8,-41.5,18.3,0.8,-41.1,5.73,2.50,-35.6,23.3
2012-01-16 00:52:00,0.0,1.9370,0.0008,403.01,0.18,-1.0,0.0,138.23,23.53,24.58,36.24,0.04,-272.73,-272.74,-44,541,-942,18.3,0.8,-41.4,18.3,0.8,-40.9,5.73,2.44,-35.6,23.4
2012-01-16 00:53:00,0.0,1.9372,0.0008,402.92,0.23,-1.0,0.0,138.23,23.53,24.57,36.25,0.04,-272.73,-272.74,-44,541,-942,18.3,0.8,-41.4,18.3,0.8,-40.7,5.73,2.46,-35.6,23.3
2012-01-16 00:54:00,0.0,1.9382,0.0010,402.94,0.18,-1.0,0.0,138.23,23.53,24.57,36.25,0.04,-272.73,-272.74,-44,540,-942,18.3,0.8,-41.4,18.3,0.8,-41.0,5.73,2.52,-35.6,23.3
2012-01-16 00:55:00,0.0,1.9379,0.0009,402.98,0.16,-1.0,0.0,138.23,23.53,24.58,36.25,0.04,-272.74,-272.74,-44,541,-942,18.3,0.7,-41.7,18.3,0.8,-41.1,5.73,2.53,-35.6,23.3
2012-01-16 00:56:00,0.0,1.9374,0.0007,402.95,0.18,-1.0,0.0,138.23,23.53,24.57,36.25,0.04,-272.73,-272.74,-44,541,-942,18.3,0.7,-41.7,18.3,0.8,-41.0,5.73,2.48,-35.6,23.3
2012-01-16 00:57:00,0.0,1.9380,0.0009,402.94,0.18,-1.0,0.0,138.23,23.53,24.58,36.25,0.04,-272.74,-272.73,-44,541,-942,18.3,0.7,-41.7,18.3,0.8,-41.3,5.73,2.44,-35.6,23.3
2012-01-16 00:58:00,0.0,1.9373,0.0008,402.94,0.17,-1.0,0.0,138.23,23.53,24.58,36.24,0.04,-272.74,-272.73,-44,541,-942,18.3,0.7,-41.8,18.3,0.8,-41.4,5.73,2.48,-35.6,23.3
2012-01-16 00:59:00,0.0,1.9367,0.0010,402.79,0.19,-1.0,0.0,138.23,23.53,24.58,36.24,0.04,-272.73,-272.74,-44,541,-942,18.3,0.7,-41.7,18.3,0.8,-41.4,5.73,2.53,-35.6,23.2
2012-01-16 01:00:00,0.0,1.9373,0.0009,402.82,0.17,-1.0,0.0,138.23,23.53,24.57,36.24,0.04,-272.73,-272.73,-44,540,-942,18.3,0.7,-41.7,18.3,0.8,-41.1,5.73,2.51,-35.7,23.3
2012-01-16 01:01:00,0.0,1.9379,0.0009,402.78,0.17,-1.0,0.0,138.23,23.52,24.57,36.25,0.04,-272.73,-272.73,-44,541,-942,18.3,0.7,-41.7,18.3,0.8,-41.1,5.73,2.46,-35.7,23.3
2012-01-16 01:02:00,0.0,1.9376,0.0009,402.80,0.20,-1.0,0.0,138.23,23.52,24.58,36.25,0.04,-272.73,-272.73,-44,541,-942,18.3,0.7,-41.7,18.3,0.8,-41.0,5.73,2.44,-35.7,23.3
2012-01-16 01:03:00,0.0,1.9369,0.0010,402.72,0.19,-1.0,0.0,138.23,23.52,24.58,36.25,0.04,-272.73,-272.74,-44,541,-942,18.3,0.7,-41.8,18.3,0.8,-41.1,5.73,2.48,-35.7,23.3
2012-01-16 01:04:00,0.0,1.9363,0.0008,402.72,0.18,-1.0,0.0,138.23,23.52,24.58,36.24,0.04,-272.74,-272.73,-44,541,-942,18.3,0.7,-41.6,18.3,0.8,-41.1,5.73,2.53,-35.7,23.3
2012-01-16 01:05:00,0.0,1.9368,0.0009,402.80,0.25,-1.0,0.0,138.23,23.52,24.57,36.24,0.04,-272.73,-272.74,-44,541,-942,18.3,0.8,-41.4,18.3,0.8,-41.0,5.73,2.51,-35.7,23.3
2012-01-16 01:06:00,0.0,1.9371,0.0010,402.80,0.16,-1.0,0.0,138.23,23.52,24.58,36.24,0.04,-272.73,-272.74,-44,541,-942,18.3,0.8,-41.3,18.3,0.8,-40.8,5.73,2.45,-35.7,23.3
2012-01-16 01:07:00,0.0,1.9380,0.0010,402.72,0.17,-1.0,0.0,138.23,23.52,24.57,36.25,0.04,-272.73,-272.74,-44,541,-942,18.3,0.8,-41.4,18.3,0.8,-40.7,5.73,2.45,-35.7,23.4
2012-01-16 01:08:00,0.0,1.9373,0.0008,402.70,0.17,-1.0,0.0,138.23,23.51,24.58,36.24,0.04,-272.74,-272.73,-44,541,-942,18.3,0.8,-41.4,18.3,0.8,-40.7,5.73,2.50,-35.7,23.4
2012-01-16 01:09:00,0.0,1.9371,0.0009,402.78,0.18,-1.0,0.0,138.23,23.51,24.58,36.24,0.04,-272.73,-272.74,-44,541,-942,18.3,0.8,-41.4,18.3,0.8,-40.8,5.73,2.53,-35.7,23.3
2012-01-16 01:10:00,0.0,1.9382,0.0008,402.75,0.16,-1.0,0.0,138.23,23.51,24.57,36.24,0.23,-271.24,-272.69,-44,541,-942,18.3,0.8,-41.2,18.3,0.8,-40.8,5.42,2.53,-39.2,23.4
2012-01-16 01:11:00,0.0,1.9372,0.0010,402.61,0.18,-1.0,0.0,138.23,23.51,24.57,36.25,0.04,-272.74,-272.74,-44,541,-942,18.3,0.8,-41.1,18.3,0.8,-40.8,5.73,2.45,-35.8,23.4
2012-01-16 01:12:00,0.0,1.9363,0.0010,402.53,0.18,-1.0,0.0,138.23,23.51,24.58,36.24,0.04,-272.74,-272.73,-44,541,-942,18.3,0.8,-41.0,18.3,0.8,-40.7,5.73,2.46,-35.8,23.4
2012-01-16 01:13:00,0.0,1.9367,0.0009,402.37,0.18,-1.0,0.0,138.23,23.51,24.58,36.25,0.04,-272.74,-272.74,-44,541,-942,18.3,0.8,-41.1,18.3,0.8,-40.8,5.73,2.51,-35.8,23.4
2012-01-16 01:14:00,0.0,1.9372,0.0009,402.58,0.19,-1.0,0.0,138.23,23.51,24.57,36.24,0.04,-272.74,-272.74,-44,541,-942,18.3,0.8,-41.1,18.3,0.8,-40.8,5.73,2.53,-35.8,23.4
2012-01-16 01:15:00,0.0,1.9366,0.0008,402.38,0.19,-1.0,0.0,138.23,23.51,24.58,36.24,0.04,-272.73,-272.73,-44,541,-942,18.3,0.8,-41.1,18.3,0.8,-40.4,5.73,2.49,-35.8,23.4
2012-01-16 01:16:00,0.0,1.9365,0.0009,402.39,0.18,-1.0,0.0,138.23,23.51,24.57,36.24,0.04,-272.73,-272.73,-44,541,-942,18.2,0.8,-41.1,18.3,0.8,-40.5,5.73,2.44,-35.8,23.4
2012-01-16 01:17:00,0.0,1.9377,0.0008,402.49,0.19,-1.0,0.0,138.23,23.51,24.57,36.25,0.04,-272.73,-272.74,-44,541,-942,18.2,0.8,-41.1,18.3,0.8,-40.4,5.73,2.46,-35.8,23.4
2012-01-16 01:18:00,0.0,1.9377,0.0008,402.47,0.17,-1.0,0.0,138.23,23.51,24.57,36.25,0.04,-272.73,-272.73,-44,541,-942,18.2,0.8,-41.1,18.3,0.8,-40.4,5.73,2.52,-35.8,23.4
2012-01-16 01:19:00,0.0,1.9375,0.0010,402.58,0.19,-1.0,0.0,138.23,23.51,24.57,36.24,0.04,-272.73,-272.73,-44,541,-942,18.2,0.8,-40.8,18.3,0.8,-40.4,5.73,2.52,-35.8,23.4
2012-01-16 01:20:00,0.0,1.9376,0.0009,402.40,0.24,-1.0,0.0,138.23,23.51,24.57,36.24,0.04,-272.74,-272.74,-44,541,-942,18.2,0.8,-40.8,18.3,0.8,-40.5,5.73,2.47,-35.8,23.4
2012-01-16 01:21:00,0.0,1.9379,0.0008,402.25,0.18,-1.0,0.0,138.23,23.51,24.57,36.25,0.04,-272.73,-272.74,-44,540,-942,18.2,0.8,-40.7,18.3,0.8,-40.4,5.73,2.44,-35.8,23.3
2012-01-16 01:22:00,0.0,1.9381,0.0010,402.41,0.18,-1.0,0.0,138.23,23.51,24.57,36.25,0.04,-272.73,-272.73,-44,541,-942,18.3,0.8,-40.7,18.3,0.8,-40.4,5.73,2.47,-35.8,23.3
2012-01-16 01:23:00,0.0,1.9376,0.0008,402.36,0.21,-1.0,0.0,138.23,23.51,24.57,36.25,0.04,-272.73,-272.74,-44,541,-942,18.2,0.8,-40.7,18.3,0.9,-40.1,5.73,2.52,-35.8,23.3
2012-01-16 01:24:00,0.0,1.9369,0.0008,402.27,0.18,-1.0,0.0,138.23,23.51,24.58,36.24,0.04,-272.74,-272.74,-44,541,-942,18.3,0.8,-40.8,18.3,0.9,-40.2,5.73,2.52,-35.8,23.3
2012-01-16 01:25:00,0.0,1.9370,0.0009,402.26,0.21,-1.0,0.0,138.23,23.51,24.57,36.24,0.04,-272.73,-272.73,-44,541,-942,18.3,0.8,-40.8,18.3,0.9,-40.1,5.73,2.47,-35.8,23.3
2012-01-16 01:26:00,0.0,1.9370,0.0010,402.35,0.19,-1.0,0.0,138.23,23.51,24.58,36.24,0.04,-272.73,-272.74,-44,541,-942,18.3,0.8,-40.7,18.3,0.9,-40.1,5.73,2.44,-35.8,23.3
2012-01-16 01:27:00,0.0,1.9375,0.0009,402.36,0.17,-1.0,0.0,138.23,23.51,24.58,36.24,0.04,-272.74,-272.74,-44,541,-942,18.3,0.8,-40.8,18.3,0.9,-40.1,5.73,2.48,-35.8,23.3
2012-01-16 01:28:00,0.0,1.9374,0.0009,402.34,0.19,-1.0,0.0,138.23,23.52,24.58,36.24,0.04,-272.73,-272.74,-44,541,-942,18.3,0.8,-40.8,18.3,0.9,-40.1,5.73,2.53,-35.8,23.3
2012-01-16 01:29:00,0.0,1.9371,0.0010,402.28,0.18,-1.0,0.0,138.23,23.51,24.58,36.25,0.04,-272.73,-272.73,-44,540,-942,18.3,0.8,-40.7,18.3,0.9,-40.1,5.73,2.51,-35.8,23.4
2012-01-16 01:30:00,0.0,1.9364,0.0009,402.31,0.18,-1.0,0.0,138.23,23.51,24.58,36.24,0.04,-272.74,-272.73,-44,541,-942,18.3,0.8,-40.7,18.3,0.9,-40.1,5.73,2.46,-35.8,23.3
2012-01-16 01:31:00,0.0,1.9361,0.0009,402.30,0.17,-1.0,0.0,138.23,23.51,24.57,36.24,0.04,-272.74,-272.74,-44,541,-942,18.3,0.8,-40.7,18.3,0.9,-40.2,5.73,2.44,-35.9,23.3
2012-01-16 01:32:00,0.0,1.9361,0.0008,402.22,0.16,-1.0,0.0,138.23,23.51,24.58,36.25,0.04,-272.73,-272.73,-44,541,-942,18.2,0.8,-40.8,18.3,0.9,-40.2,5.73,2.49,-35.8,23.4
2012-01-16 01:33:00,0.0,1.9364,0.0010,402.35,0.21,-1.0,0.0,138.23,23.50,24.58,36.24,0.04,-272.73,-272.74,-44,541,-942,18.2,0.8,-40.8,18.3,0.9,-40.2,5.73,2.53,-35.9,23.4
2012-01-16 01:34:00,0.0,1.9367,0.0008,402.41,0.20,-1.0,0.0,138.23,23.50,24.57,36.24,0.04,-272.74,-272.74,-44,540,-942,18.2,0.8,-40.7,18.3,0.9,-40.1,5.73,2.51,-35.9,23.3
2012-01-16 01:35:00,0.0,1.9366,0.0008,402.35,0.18,-1.0,0.0,138.23,23.50,24.58,36.24,0.04,-272.73,-272.73,-44,540,-942,18.2,0.8,-40.6,18.3,0.9,-40.2,5.73,2.45,-35.9,23.4
2012-01-16 01:36:00,0.0,1.9366,0.0009,402.29,0.21,-1.0,0.0,138.23,23.50,24.57,36.25,0.04,-272.73,-272.73,-44,540,-942,18.2,0.8,-40.5,18.3,0.9,-40.2,5.73,2.45,-35.9,23.3
2012-01-16 01:37:00,0.0,1.9378,0.0010,402.44,0.18,-1.0,0.0,138.23,23.50,24.57,36.25,0.04,-272.74,-272.74,-44,541,-942,18.2,0.8,-40.7,18.3,0.9,-40.2,5.73,2.51,-35.9,23.4
2012-01-16 01:38:00,0.0,1.9374,0.0009,402.51,0.21,-1.0,0.0,138.23,23.49,24.57,36.24,0.04,-272.74,-272.74,-44,540,-942,18.2,0.8,-41.2,18.3,0.8,-40.6,5.73,2.53,-35.9,23.4
2012-01-16 01:39:00,0.0,1.9371,0.0008,402.44,0.21,-1.0,0.0,138.23,23.49,24.57,36.25,0.04,-272.73,-272.73,-44,541,-942,18.2,0.8,-41.5,18.3,0.8,-41.0,5.73,2.48,-35.9,23.3
2012-01-16 01:40:00,0.0,1.9375,0.0008,402.48,0.17,-1.0,0.0,138.23,23.49,24.57,36.25,0.04,-272.73,-272.73,-44,541,-942,18.2,0.7,-41.7,18.3,0.8,-41.2,5.73,2.45,-35.9,23.4
2012-01-16 01:41:00,0.0,1.9372,0.0009,402.53,0.19,-1.0,0.0,138.23,23.49,24.58,36.25,0.04,-272.74,-272.73,-44,541,-942,18.2,0.7,-42.0,18.3,0.8,-41.5,5.73,2.46,-35.9,23.4
2012-01-16 01:42:00,0.0,1.9374,0.0009,402.51,0.18,-1.0,0.0,138.23,23.49,24.58,36.25,0.04,-272.74,-272.73,-44,541,-942,18.2,0.7,-42.1,18.3,0.8,-41.4,5.73,2.51,-35.9,23.3
2012-01-16 01:43:00,0.0,1.9397,0.0014,402.66,0.21,-1.0,0.0,138.23,23.48,24.58,36.24,0.04,-272.73,-272.74,-44,540,-942,18.2,0.7,-42.2,18.3,0.7,-41.8,5.73,2.53,-35.9,23.3
2012-01-16 01:44:00,0.0,1.9402,0.0013,402.56,0.18,-1.0,0.0,138.23,23.48,24.58,36.24,0.04,-272.74,-272.74,-44,541,-942,18.3,0.7,-42.4,18.3,0.7,-41.7,5.73,2.48,-35.9,23.3
2012-01-16 01:45:00,0.0,1.9377,0.0009,402.48,0.17,-1.0,0.0,138.23,23.48,24.57,36.24,0.04,-272.73,-272.73,-44,540,-942,18.2,0.7,-42.5,18.3,0.7,-41.8,5.73,2.45,-35.9,23.3
2012-01-16 01:46:00,0.0,1.9369,0.0009,402.31,0.18,-1.0,0.0,138.23,23.48,24.57,36.25,0.04,-272.73,-272.74,-44,541,-942,18.2,0.7,-42.5,18.3,0.7,-41.8,5.73,2.47,-35.9,23.3
2012-01-16 01:47:00,0.0,1.9372,0.0009,402.30,0.19,-1.0,0.0,138.23,23.48,24.58,36.24,0.04,-272.74,-272.74,-44,541,-942,18.3,0.7,-42.4,18.3,0.7,-41.8,5.73,2.52,-35.9,23.3
2012-01-16 01:48:00,0.0,1.9366,0.0008,402.26,0.18,-1.0,0.0,138.23,23.48,24.58,36.24,0.04,-272.74,-272.74,-44,541,-942,18.3,0.7,-42.5,18.3,0.7,-41.8,5.73,2.52,-35.9,23.3
2012-01-16 01:49:00,0.0,1.9370,0.0009,402.21,0.17,-1.0,0.0,138.23,23.48,24.58,36.25,0.04,-272.73,-272.74,-44,541,-942,18.2,0.7,-42.2,18.3,0.7,-41.8,5.73,2.48,-36.0,23.3
2012-01-16 01:50:00,0.0,1.9372,0.0010,402.20,0.18,-1.0,0.0,138.23,23.48,24.57,36.25,0.04,-272.73,-272.74,-44,541,-942,18.3,0.7,-42.2,18.3,0.7,-41.6,5.73,2.46,-35.9,23.3
2012-01-16 01:51:00,0.0,1.9367,0.0010,402.29,0.16,-1.0,0.0,138.23,23.48,24.57,36.24,0.04,-272.74,-272.74,-44,541,-942,18.3,0.7,-42.1,18.3,0.8,-41.5,5.73,2.47,-35.9,23.3
2012-01-16 01:52:00,0.0,1.9374,0.0009,402.22,0.18,-1.0,0.0,138.23,23.49,24.58,36.25,0.04,-272.73,-272.73,-44,541,-942,18.2,0.7,-42.0,18.3,0.8,-41.4,5.73,2.52,-35.9,23.3
2012-01-16 01:53:00,0.0,1.9376,0.0009,402.28,0.19,-1.0,0.0,138.23,23.49,24.57,36.25,0.04,-272.73,-272.73,-44,540,-942,18.2,0.7,-42.1,18.3,0.8,-41.4,5.73,2.52,-35.9,23.3
2012-01-16 01:54:00,0.0,1.9372,0.0009,402.25,0.21,-1.0,0.0,138.23,23.49,24.57,36.24,0.04,-272.74,-272.74,-44,541,-942,18.2,0.7,-42.1,18.3,0.8,-41.5,5.73,2.48,-36.0,23.3
2012-01-16 01:55:00,0.0,1.9374,0.0009,402.30,0.18,-1.0,0.0,138.23,23.49,24.57,36.24,0.04,-272.73,-272.74,-44,541,-942,18.2,0.7,-41.9,18.3,0.8,-41.5,5.73,2.44,-36.0,23.3
2012-01-16 01:56:00,0.0,1.9370,0.0009,402.29,0.17,-1.0,0.0,138.23,23.49,24.57,36.24,0.04,-272.73,-272.73,-44,541,-942,18.2,0.7,-41.7,18.3,0.8,-41.4,5.73,2.48,-35.9,23.3
2012-01-16 01:57:00,0.0,1.9367,0.0008,402.32,0.22,-1.0,0.0,138.23,23.49,24.58,36.24,0.04,-272.74,-272.74,-44,540,-942,18.3,0.7,-41.8,18.3,0.8,-41.4,5.73,2.52,-36.0,23.3
2012-01-16 01:58:00,0.0,1.9373,0.0009,402.28,0.17,-1.0,0.0,138.23,23.49,24.58,36.24,0.04,-272.73,-272.74,-44,541,-942,18.2,0.7,-41.8,18.3,0.8,-41.3,5.73,2.52,-36.0,23.3
2012-01-16 01:59:00,0.0,1.9371,0.0007,402.22,0.17,-1.0,0.0,138.23,23.49,24.57,36.25,0.04,-272.73,-272.74,-44,541,-942,18.2,0.7,-41.7,18.3,0.8,-41.1,5.73,2.48,-36.0,23.3
2012-01-16 02:00:00,1.0,1.8999,0.0257,387.27,10.29,-1.0,0.0,138.23,23.48,24.57,36.25,0.04,-272.73,-272.74,-44,550,-942,18.2,0.7,-41.8,18.3,0.8,-41.1,5.73,2.42,-36.0,23.3
2012-01-16 02:01:00,1.0,1.8706,0.0010,375.86,0.21,-1.0,0.0,138.23,23.48,24.58,36.25,0.04,-272.74,-272.74,-44,548,-942,18.2,0.7,-41.8,18.3,0.8,-41.3,5.73,2.47,-36.0,23.3
2012-01-16 02:02:00,1.0,1.8704,0.0008,375.81,0.17,-1.0,0.0,138.23,23.48,24.58,36.26,0.04,-272.73,-272.73,-44,549,-942,18.2,0.7,-42.0,18.3,0.8,-41.5,5.73,2.52,-36.0,23.3
2012-01-16 02:03:00,1.0,1.8704,0.0009,375.80,0.18,-1.0,0.0,138.23,23.48,24.58,36.26,0.04,-272.74,-272.74,-44,548,-942,18.2,0.7,-42.1,18.3,0.8,-41.4,5.73,2.51,-36.0,23.3
2012-01-16 02:04:00,1.0,1.8707,0.0009,375.90,0.18,-1.0,0.0,138.23,23.48,24.58,36.25,0.04,-272.73,-272.74,-44,548,-942,18.2,0.7,-42.1,18.3,0.8,-41.5,5.73,2.47,-36.0,23.3
2012-01-16 02:05:00,0.0,1.9079,0.0261,390.57,10.31,-1.0,0.0,138.23,23.48,24.58,36.25,0.04,-272.74,-272.74,-44,540,-942,18.2,0.7,-41.9,18.3,0.8,-41.4,5.73,2.42,-36.0,23.3
2012-01-16 02:06:00,0.0,1.9377,0.0008,402.37,0.18,-1.0,0.0,138.23,23.48,24.57,36.25,0.04,-272.73,-272.73,-44,540,-942,18.2,0.7,-41.7,18.3,0.8,-41.2,5.73,2.48,-36.0,23.3
2012-01-16 02:07:00,0.0,1.9374,0.0008,402.54,0.20,-1.0,0.0,138.23,23.48,24.57,36.24,0.04,-272.73,-272.74,-44,540,-942,18.3,0.7,-41.6,18.3,0.8,-41.1,5.73,2.52,-36.0,23.3
2012-01-16 02:08:00,0.0,1.9371,0.0009,402.65,0.17,-1.0,0.0,138.23,23.48,24.57,36.25,0.04,-272.73,-272.74,-44,540,-942,18.3,0.8,-41.5,18.3,0.8,-40.9,5.73,2.51,-35.9,23.3
2012-01-16 02:09:00,0.0,1.9369,0.0009,402.72,0.18,-1.0,0.0,138.23,23.48,24.57,36.25,0.04,-272.73,-272.73,-44,540,-942,18.3,0.8,-41.3,18.3,0.8,-40.8,5.73,2.46,-35.9,23.2
2012-01-16 02:10:00,0.0,1.9371,0.0011,402.73,0.20,-1.0,0.0,138.23,23.48,24.57,36.25,0.04,-272.74,-272.73,-44,540,-942,18.3,0.8,-41.1,18.3,0.8,-40.8,5.73,2.45,-35.9,23.2
2012-01-16 02:11:00,0.0,1.9372,0.0009,402.70,0.21,-1.0,0.0,138.23,23.48,24.57,36.25,0.04,-272.73,-272.73,-44,540,-942,18.3,0.8,-41.1,18.3,0.8,-40.8,5.73,2.49,-35.9,23.3
2012-01-16 02:12:00,0.0,1.9372,0.0008,402.72,0.16,-1.0,0.0,138.23,23.48,24.58,36.24,0.04,-272.73,-272.74,-44,540,-942,18.3,0.8,-41.1,18.3,0.8,-40.6,5.73,2.53,-35.9,23.3
2012-01-16 02:13:00,0.0,1.9375,0.0008,402.74,0.18,-1.0,0.0,138.23,23.47,24.58,36.25,0.04,-272.73,-272.74,-44,541,-942,18.3,0.8,-41.1,18.3,0.8,-40.4,5.73,2.52,-35.9,23.3
2012-01-16 02:14:00,0.0,1.9375,0.0009,402.73,0.19,-1.0,0.0,138.23,23.47,24.57,36.25,0.04,-272.73,-272.74,-44,541,-942,18.3,0.8,-40.8,18.3,0.8,-40.5,5.73,2.46,-36.0,23.3
2012-01-16 02:15:00,0.0,1.9374,0.0008,402.98,0.22,-1.0,0.0,138.23,23.47,24.57,36.25,0.04,-272.73,-272.74,-44,540,-942,18.3,0.8,-40.8,18.3,0.9,-40.3,5.73,2.45,-36.0,23.3
2012-01-16 02:16:00,0.0,1.9379,0.0010,403.05,0.18,-1.0,0.0,138.23,23.48,24.58,36.24,0.04,-272.73,-272.73,-44,540,-942,18.3,0.8,-40.7,18.3,0.9,-40.1,5.73,2.49,-36.0,23.3
2012-01-16 02:17:00,0.0,1.9374,0.0009,402.99,0.16,-1.0,0.0,138.23,23.48,24.58,36.24,0.04,-272.74,-272.74,-44,541,-942,18.3,0.8,-40.8,18.3,0.9,-40.1,5.73,2.53,-36.0,23.3
2012-01-16 02:18:00,0.0,1.9376,0.0008,402.93,0.19,-1.0,0.0,138.23,23.48,24.57,36.25,0.04,-272.74,-272.73,-44,541,-942,18.3,0.8,-40.7,18.3,0.9,-40.2,5.73,2.50,-36.0,23.3